FW6720 Weather Reports


Display with metric or nautical units.
time (UTC)temp
F
wind
direction
speed
MPH
gust
MPH
rain 1hr
in
rain 24hr
in
rain mn
in
humidity
%
barometer
mb
20260509185755 67 56 0.0 1.0 0.00 0.00 0.00 51 1021.5
20260509185251 69 55 0.0 0.0 0.00 0.00 0.00 51 1021.5
20260509184749 68 55 0.0 0.0 0.00 0.00 0.00 50 1021.8
20260509184246 67 55 0.0 1.0 0.00 0.00 0.00 54 1021.9
20260509183743 66 55 0.0 0.0 0.00 0.00 0.00 60 1021.9
20260509183238 66 54 0.0 1.0 0.00 0.00 0.00 55 1022.0
20260509182733 66 54 0.0 0.0 0.00 0.00 0.00 57 1021.8
20260509182232 66 55 0.0 0.0 0.00 0.00 0.00 57 1021.9
20260509181728 66 55 0.0 0.0 0.00 0.00 0.00 62 1022.0
20260509181226 65 54 0.0 0.0 0.00 0.00 0.00 57 1021.9
20260509180723 66 55 0.0 0.0 0.00 0.00 0.00 57 1022.0
20260509180219 68 54 0.0 0.0 0.00 0.00 0.00 58 1022.1
20260509175716 66 54 0.0 0.0 0.00 0.00 0.00 62 1022.0
20260509175212 65 55 0.0 0.0 0.00 0.00 0.00 63 1021.8
20260509174708 64 54 0.0 0.0 0.00 0.00 0.00 66 1022.2
20260509174203 64 54 0.0 0.0 0.00 0.00 0.00 63 1022.2
20260509173659 64 54 0.0 0.0 0.00 0.00 0.00 64 1022.0
20260509173155 64 54 0.0 0.0 0.00 0.00 0.00 67 1022.3
20260509172651 63 53 0.0 0.0 0.00 0.00 0.00 62 1022.3
20260509172148 63 53 0.0 0.0 0.00 0.00 0.00 61 1022.3
20260509171643 64 53 0.0 0.0 0.00 0.00 0.00 64 1022.4
20260509171140 64 54 0.0 0.0 0.00 0.00 0.00 68 1022.3
20260509170637 62 54 0.0 0.0 0.00 0.00 0.00 68 1022.4
20260509170133 61 54 0.0 0.0 0.00 0.00 0.00 66 1022.4
20260509165631 62 54 0.0 0.0 0.00 0.00 0.00 67 1022.4
20260509165127 61 54 0.0 0.0 0.00 0.00 0.00 69 1022.5
20260509164623 60 54 0.0 0.0 0.00 0.00 0.00 69 1022.2
20260509164119 60 53 0.0 0.0 0.00 0.00 0.00 75 1022.6
20260509163617 60 53 0.0 0.0 0.00 0.00 0.00 75 1022.6
20260509163112 60 53 0.0 0.0 0.00 0.00 0.00 76 1022.5
20260509162610 60 53 0.0 0.0 0.00 0.00 0.00 77 1022.6
20260509162106 60 53 0.0 0.0 0.00 0.00 0.00 73 1022.7
20260509161603 59 54 0.0 0.0 0.00 0.00 0.00 78 1022.6
20260509161103 58 53 0.0 0.0 0.00 0.00 0.00 80 1022.9
20260509160559 57 53 0.0 0.0 0.00 0.00 0.00 77 1022.9
20260509160054 56 53 0.0 0.0 0.00 0.00 0.00 83 1023.1
20260509155551 54 53 0.0 0.0 0.00 0.00 0.00 85 1023.3
20260509155047 53 53 0.0 0.0 0.00 0.00 0.00 87 1023.4
20260509154543 51 51 0.0 0.0 0.00 0.00 0.00 92 1023.3
20260509154041 50 51 0.0 0.0 0.00 0.00 0.00 95 1023.3
20260509153537 49 51 0.0 0.0 0.00 0.00 0.00 96 1023.5
20260509153034 48 51 0.0 0.0 0.00 0.00 0.00 97 1023.3
20260509152530 48 51 0.0 0.0 0.00 0.00 0.00 97 1023.1
20260509152027 47 50 0.0 0.0 0.00 0.00 0.00 97 1023.6
20260509151523 47 51 0.0 0.0 0.00 0.00 0.00 97 1023.1
20260509151021 46 51 0.0 0.0 0.00 0.00 0.00 97 1023.6
20260509150519 45 51 0.0 0.0 0.00 0.00 0.00 97 1023.4
20260509150017 44 51 0.0 0.0 0.00 0.00 0.00 97 1023.6
20260509145512 44 51 0.0 0.0 0.00 0.00 0.00 97 1023.5
20260509145008 44 51 0.0 0.0 0.00 0.00 0.00 97 1023.7
20260509144505 43 51 0.0 0.0 0.00 0.00 0.00 97 1023.7
20260509144002 43 51 0.0 0.0 0.00 0.00 0.00 97 1023.6
20260509143459 42 51 0.0 0.0 0.00 0.00 0.00 97 1023.8
20260509142956 42 51 0.0 0.0 0.00 0.00 0.00 97 1023.9
20260509142452 42 51 0.0 0.0 0.00 0.00 0.00 97 1023.6
20260509141948 42 51 0.0 0.0 0.00 0.00 0.00 97 1023.7
20260509141444 41 51 0.0 0.0 0.00 0.00 0.00 97 1023.3
20260509140941 41 51 0.0 0.0 0.00 0.00 0.00 97 1023.4
20260509140437 41 51 0.0 0.0 0.00 0.00 0.00 97 1023.0
20260509135936 41 51 0.0 0.0 0.00 0.00 0.00 97 1023.7
20260509135433 41 51 0.0 0.0 0.00 0.00 0.00 97 1023.4
20260509134930 40 51 0.0 0.0 0.00 0.00 0.00 97 1023.5
20260509134428 40 51 0.0 0.0 0.00 0.00 0.00 97 1023.5
20260509133925 40 51 0.0 0.0 0.00 0.00 0.00 97 1023.5
20260509133421 40 51 0.0 0.0 0.00 0.00 0.00 97 1023.7
20260509132920 40 51 0.0 0.0 0.00 0.00 0.00 97 1023.6
20260509132418 40 51 0.0 0.0 0.00 0.00 0.00 97 1023.6
20260509131914 40 51 0.0 0.0 0.00 0.00 0.00 97 1023.3
20260509131411 40 51 0.0 0.0 0.00 0.00 0.00 97 1023.4
20260509130908 40 51 0.0 0.0 0.00 0.00 0.00 97 1023.6
20260509130403 40 51 0.0 0.0 0.00 0.00 0.00 97 1023.4
20260509125901 40 51 0.0 0.0 0.00 0.00 0.00 97 1023.6
20260509125357 40 51 0.0 0.0 0.00 0.00 0.00 97 1023.6
20260509124853 40 52 0.0 0.0 0.00 0.00 0.00 97 1023.4
20260509124350 40 52 0.0 0.0 0.00 0.00 0.00 97 1023.6
20260509123848 41 52 0.0 0.0 0.00 0.00 0.00 97 1023.6
20260509123345 41 52 0.0 0.0 0.00 0.00 0.00 97 1023.4
20260509122841 40 52 0.0 0.0 0.00 0.00 0.00 97 1023.7
20260509122338 41 52 0.0 0.0 0.00 0.00 0.00 97 1023.5
20260509121835 41 52 0.0 0.0 0.00 0.00 0.00 97 1023.7
20260509121332 41 52 0.0 0.0 0.00 0.00 0.00 97 1023.7
20260509120830 41 52 0.0 0.0 0.00 0.00 0.00 97 1023.6
20260509120327 41 52 0.0 0.0 0.00 0.00 0.00 97 1023.5
20260509115825 41 52 0.0 0.0 0.00 0.00 0.00 97 1023.6
20260509115322 41 52 0.0 0.0 0.00 0.00 0.00 97 1023.7
20260509114820 41 52 0.0 0.0 0.00 0.00 0.00 97 1023.8
20260509114318 41 52 0.0 0.0 0.00 0.00 0.00 97 1023.8
20260509113818 41 52 0.0 0.0 0.00 0.00 0.00 97 1024.0
20260509113314 41 52 0.0 0.0 0.00 0.00 0.00 97 1023.8
20260509112811 41 52 0.0 0.0 0.00 0.00 0.00 96 1024.0
20260509112308 42 52 0.0 0.0 0.00 0.00 0.00 96 1024.0
20260509111805 42 52 0.0 0.0 0.00 0.00 0.00 96 1024.1
20260509111302 42 52 0.0 0.0 0.00 0.00 0.00 96 1024.1
20260509110759 42 52 0.0 0.0 0.00 0.00 0.00 96 1023.9
20260509110255 42 52 0.0 0.0 0.00 0.00 0.00 96 1023.9
20260509105754 42 52 0.0 0.0 0.00 0.00 0.00 96 1024.2
20260509105251 42 52 0.0 0.0 0.00 0.00 0.00 96 1024.1
20260509104748 42 52 0.0 0.0 0.00 0.00 0.00 96 1024.1
20260509104245 42 52 0.0 0.0 0.00 0.00 0.00 96 1024.3
20260509103743 42 52 0.0 0.0 0.00 0.00 0.00 96 1024.2
20260509103240 42 52 0.0 0.0 0.00 0.00 0.00 96 1024.4
20260509102738 42 52 0.0 0.0 0.00 0.00 0.00 96 1024.3
20260509102235 42 52 0.0 0.0 0.00 0.00 0.00 96 1024.3
20260509101731 42 52 0.0 0.0 0.00 0.00 0.00 96 1024.2
20260509101227 43 52 0.0 0.0 0.00 0.00 0.00 96 1024.5
20260509100725 43 52 0.0 0.0 0.00 0.00 0.00 96 1024.4
20260509100222 43 52 0.0 0.0 0.00 0.00 0.00 96 1024.4
20260509095719 43 52 0.0 0.0 0.00 0.00 0.00 96 1024.3
20260509095216 43 52 0.0 0.0 0.00 0.00 0.00 96 1024.5
20260509094713 43 52 0.0 0.0 0.00 0.00 0.00 96 1024.5
20260509094210 43 52 0.0 0.0 0.00 0.00 0.00 96 1024.3
20260509093708 43 52 0.0 0.0 0.00 0.00 0.00 96 1024.5
20260509093205 44 52 0.0 0.0 0.00 0.00 0.00 96 1024.5
20260509092703 44 52 0.0 0.0 0.00 0.00 0.00 96 1024.5
20260509092201 44 52 0.0 0.0 0.00 0.00 0.00 96 1024.6
20260509091659 44 52 0.0 0.0 0.00 0.00 0.00 96 1024.6
20260509091154 44 52 0.0 0.0 0.00 0.00 0.00 96 1024.7
20260509090652 44 52 0.0 0.0 0.00 0.00 0.00 96 1024.7
20260509090149 44 52 0.0 0.0 0.00 0.00 0.00 96 1024.8
20260509085647 44 52 0.0 0.0 0.00 0.00 0.00 96 1024.8
20260509085143 44 52 0.0 0.0 0.00 0.00 0.00 95 1024.8
20260509084640 44 52 0.0 0.0 0.00 0.00 0.00 95 1024.8
20260509084137 44 52 0.0 0.0 0.00 0.00 0.00 95 1024.8
20260509083635 45 52 0.0 0.0 0.00 0.00 0.00 95 1024.9
20260509083131 45 52 0.0 0.0 0.00 0.00 0.00 95 1025.0
20260509082628 45 52 0.0 0.0 0.00 0.00 0.00 94 1024.8
20260509082125 45 52 0.0 0.0 0.00 0.00 0.00 94 1025.2
20260509081622 45 52 0.0 0.0 0.00 0.00 0.00 94 1024.8
20260509081119 45 52 0.0 0.0 0.00 0.00 0.00 94 1025.0
20260509080617 45 52 0.0 0.0 0.00 0.00 0.00 94 1024.9
20260509080115 45 52 0.0 0.0 0.00 0.00 0.00 94 1025.1
20260509075613 45 52 0.0 0.0 0.00 0.00 0.00 93 1025.0
20260509075110 46 52 0.0 0.0 0.00 0.00 0.00 93 1024.9
20260509074607 46 52 0.0 0.0 0.00 0.00 0.00 93 1024.9
20260509074103 46 52 0.0 0.0 0.00 0.00 0.00 92 1025.1
20260509073559 46 52 0.0 0.0 0.00 0.00 0.00 92 1024.9
20260509073051 46 52 0.0 0.0 0.00 0.00 0.00 92 1024.8
20260509072547 46 52 0.0 0.0 0.00 0.00 0.00 92 1025.1
20260509072044 46 52 0.0 0.0 0.00 0.00 0.00 92 1025.0
20260509071541 47 52 0.0 0.0 0.00 0.00 0.00 92 1024.9
20260509071038 47 52 0.0 0.0 0.00 0.00 0.00 92 1024.9
20260509070535 47 52 0.0 0.0 0.00 0.00 0.00 91 1024.9
20260509070031 47 52 0.0 0.0 0.00 0.00 0.00 91 1024.9
20260509065527 47 52 0.0 0.0 0.00 0.00 0.00 91 1024.9
20260509065023 47 52 0.0 0.0 0.00 0.00 0.00 90 1025.0
20260509064521 47 52 0.0 0.0 0.00 0.00 0.00 90 1024.9
20260509064019 48 52 0.0 0.0 0.00 0.00 0.00 90 1025.0
20260509063514 48 52 0.0 0.0 0.00 0.00 0.00 89 1025.0
20260509063012 48 52 0.0 0.0 0.00 0.00 0.00 89 1025.1
20260509062509 48 52 0.0 0.0 0.00 0.00 0.00 89 1025.1
20260509062006 48 52 0.0 0.0 0.00 0.00 0.00 89 1025.2
20260509061504 48 52 0.0 0.0 0.00 0.00 0.00 89 1025.1
20260509061001 49 52 0.0 0.0 0.00 0.00 0.00 89 1025.0
20260509060458 49 52 0.0 0.0 0.00 0.00 0.00 89 1024.9
20260509055953 49 52 0.0 0.0 0.00 0.00 0.00 88 1025.0
20260509055448 49 52 0.0 0.0 0.00 0.00 0.00 88 1025.0
20260509054945 49 52 0.0 0.0 0.00 0.00 0.00 87 1024.9
20260509054442 49 52 0.0 0.0 0.00 0.00 0.00 87 1025.0
20260509053940 50 52 0.0 0.0 0.00 0.00 0.00 87 1024.9
20260509053438 50 52 0.0 0.0 0.00 0.00 0.00 87 1024.8
20260509052935 50 52 0.0 0.0 0.00 0.00 0.00 86 1024.6
20260509052432 50 52 0.0 0.0 0.00 0.00 0.00 86 1024.6
20260509051930 50 52 0.0 0.0 0.00 0.00 0.00 86 1024.6
20260509051428 51 52 0.0 0.0 0.00 0.00 0.00 85 1024.8
20260509050925 51 52 0.0 0.0 0.00 0.00 0.00 86 1024.7
20260509050421 51 52 0.0 0.0 0.00 0.00 0.00 85 1024.7
20260509045918 51 52 0.0 0.0 0.00 0.00 0.00 85 1024.9
20260509045415 51 52 0.0 0.0 0.00 0.00 0.00 84 1024.8
20260509044912 52 52 0.0 0.0 0.00 0.00 0.00 84 1024.7
20260509044410 52 52 0.0 0.0 0.00 0.00 0.00 84 1024.6
20260509043907 52 52 0.0 0.0 0.00 0.00 0.00 83 1024.5
20260509043402 52 52 0.0 0.0 0.00 0.00 0.00 83 1024.3
20260509042858 53 52 0.0 0.0 0.00 0.00 0.00 83 1024.6
20260509042355 53 52 0.0 0.0 0.00 0.00 0.00 82 1024.4
20260509041852 53 52 0.0 0.0 0.00 0.00 0.00 81 1024.2
20260509041348 54 52 0.0 0.0 0.00 0.00 0.00 81 1024.3
20260509040847 54 52 0.0 0.0 0.00 0.00 0.00 81 1024.0
20260509040344 55 52 0.0 0.0 0.00 0.00 0.00 80 1024.0
20260509035841 55 52 0.0 0.0 0.00 0.00 0.00 79 1024.0
20260509035338 56 52 0.0 0.0 0.00 0.00 0.00 78 1024.0
20260509034834 56 52 0.0 0.0 0.00 0.00 0.00 76 1023.9
20260509034332 56 52 0.0 0.0 0.00 0.00 0.00 76 1024.0
20260509033828 57 52 0.0 0.0 0.00 0.00 0.00 77 1023.9
20260509033326 57 52 0.0 0.0 0.00 0.00 0.00 76 1024.1
20260509032823 58 52 0.0 0.0 0.00 0.00 0.00 74 1023.7
20260509032320 58 51 0.0 0.0 0.00 0.00 0.00 74 1023.7
20260509031818 59 51 0.0 0.0 0.00 0.00 0.00 75 1023.9
20260509031315 59 51 0.0 0.0 0.00 0.00 0.00 74 1023.8
20260509030813 59 51 0.0 0.0 0.00 0.00 0.00 75 1023.7
20260509030310 59 51 0.0 0.0 0.00 0.00 0.00 76 1023.8
20260509025807 59 51 0.0 0.0 0.00 0.00 0.00 74 1023.7
20260509025306 59 51 0.0 0.0 0.00 0.00 0.00 75 1023.5
20260509024758 59 51 0.0 0.0 0.00 0.00 0.00 72 1023.6
20260509024254 60 51 0.0 0.0 0.00 0.00 0.00 74 1023.7
20260509023751 60 51 0.0 0.0 0.00 0.00 0.00 73 1023.7
20260509023249 60 51 0.0 0.0 0.00 0.00 0.00 72 1023.7
20260509022744 60 51 0.0 0.0 0.00 0.00 0.00 70 1023.4
20260509022242 61 51 0.0 0.0 0.00 0.00 0.00 70 1023.4
20260509021739 61 51 0.0 0.0 0.00 0.00 0.00 68 1023.5
20260509021236 62 51 0.0 0.0 0.00 0.00 0.00 66 1023.6
20260509020734 62 51 0.0 0.0 0.00 0.00 0.00 66 1023.5
20260509020231 62 51 0.0 0.0 0.00 0.00 0.00 64 1023.3
20260509015729 62 51 0.0 0.0 0.00 0.00 0.00 65 1023.4
20260509015227 62 51 0.0 0.0 0.00 0.00 0.00 64 1023.3
20260509014723 62 51 0.0 0.0 0.00 0.00 0.00 64 1023.8
20260509014220 62 51 0.0 0.0 0.00 0.00 0.00 62 1023.5
20260509013717 62 51 0.0 0.0 0.00 0.00 0.00 63 1023.6
20260509013213 63 51 0.0 0.0 0.00 0.00 0.00 64 1023.5
20260509012709 63 51 0.0 0.0 0.00 0.00 0.00 61 1023.5
20260509012206 63 51 0.0 0.0 0.00 0.00 0.00 62 1023.5
20260509011704 63 51 0.0 0.0 0.00 0.00 0.00 61 1023.3
20260509011201 63 51 0.0 0.0 0.00 0.00 0.00 63 1023.7
20260509010659 63 51 0.0 0.0 0.00 0.00 0.00 62 1023.8
20260509010155 63 51 0.0 0.0 0.00 0.00 0.00 62 1023.6
20260509005653 63 51 0.0 0.0 0.00 0.00 0.00 60 1023.8
20260509005149 63 51 0.0 0.0 0.00 0.00 0.00 60 1023.6
20260509004644 63 51 0.0 0.0 0.00 0.00 0.00 60 1023.8
20260509004142 63 51 0.0 0.0 0.00 0.00 0.00 63 1023.7
20260509003641 63 51 0.0 0.0 0.00 0.00 0.00 59 1023.8
20260509003138 64 51 0.0 0.0 0.00 0.00 0.00 58 1023.6
20260509002635 64 51 0.0 0.0 0.00 0.00 0.00 60 1023.7
20260509002132 65 51 0.0 0.0 0.00 0.00 0.00 58 1023.3
20260509001630 65 51 0.0 0.0 0.00 0.00 0.00 55 1023.4
20260509001125 65 51 0.0 0.0 0.00 0.00 0.00 54 1023.5
20260509000624 65 51 0.0 0.0 0.00 0.00 0.00 56 1023.6
20260509000120 65 52 0.0 0.0 0.00 0.00 0.00 54 1023.7
20260508235617 65 52 0.0 0.0 0.00 0.00 0.00 54 1023.6
20260508235114 65 53 0.0 0.0 0.00 0.00 0.00 53 1023.6
20260508234611 65 52 0.0 0.0 0.00 0.00 0.00 58 1023.6
20260508234107 65 52 0.0 0.0 0.00 0.00 0.00 56 1023.8
20260508233607 65 52 0.0 0.0 0.00 0.00 0.00 52 1023.7
20260508233104 65 52 0.0 0.0 0.00 0.00 0.00 53 1023.8
20260508232601 64 53 0.0 0.0 0.00 0.00 0.00 53 1023.6
20260508232057 64 53 0.0 0.0 0.00 0.00 0.00 55 1023.7
20260508231556 64 52 0.0 0.0 0.00 0.00 0.00 55 1023.7
20260508231052 64 52 0.0 0.0 0.00 0.00 0.00 54 1023.8
20260508230549 64 52 0.0 0.0 0.00 0.00 0.00 58 1023.7
20260508230045 63 52 0.0 0.0 0.00 0.00 0.00 58 1023.9
20260508225543 63 52 0.0 0.0 0.00 0.00 0.00 55 1023.7
20260508225039 64 52 0.0 0.0 0.00 0.00 0.00 54 1023.7
20260508224538 64 52 0.0 0.0 0.00 0.00 0.00 57 1023.6
20260508224034 64 53 0.0 0.0 0.00 0.00 0.00 56 1023.6
20260508223532 64 55 0.0 0.0 0.00 0.00 0.00 53 1023.7
20260508223029 64 53 0.0 0.0 0.00 0.00 0.00 56 1023.5
20260508222527 63 54 0.0 0.0 0.00 0.00 0.00 53 1023.5
20260508222023 64 52 0.0 0.0 0.00 0.00 0.00 53 1023.4
20260508221520 64 54 0.0 0.0 0.00 0.00 0.00 55 1023.5
20260508221015 64 54 0.0 0.0 0.00 0.00 0.00 51 1023.8
20260508220512 64 54 0.0 0.0 0.00 0.00 0.00 52 1023.8
20260508220009 63 54 0.0 0.0 0.00 0.00 0.00 52 1023.8
20260508215505 64 56 0.0 1.0 0.00 0.00 0.00 51 1023.7
20260508215002 65 55 0.0 1.0 0.00 0.00 0.00 51 1023.8
20260508214500 65 55 0.0 0.0 0.00 0.00 0.00 50 1023.4
20260508213955 65 56 0.0 0.0 0.00 0.00 0.00 49 1023.6
20260508213454 66 57 0.0 1.0 0.00 0.00 0.00 49 1023.8
20260508212948 66 55 0.0 0.0 0.00 0.00 0.00 52 1023.7
20260508212446 64 31 0.0 0.0 0.00 0.00 0.00 52 1023.8
20260508211941 64 67 0.0 0.0 0.00 0.00 0.00 51 1024.0
20260508211437 65 17 0.0 1.0 0.00 0.00 0.00 50 1023.8
20260508210934 64 56 0.0 0.0 0.00 0.00 0.00 52 1023.8
20260508210431 63 56 0.0 0.0 0.00 0.00 0.00 54 1024.0
20260508205927 63 88 1.0 2.0 0.00 0.00 0.00 54 1023.9
20260508205425 62 55 0.0 0.0 0.00 0.00 0.00 55 1024.0
20260508204920 62 56 0.0 0.0 0.00 0.00 0.00 53 1024.1
20260508204418 62 42 0.0 0.0 0.00 0.00 0.00 54 1023.9
20260508203913 61 38 0.0 1.0 0.00 0.00 0.00 56 1023.7
20260508203410 60 28 1.0 1.0 0.00 0.00 0.00 57 1023.6
20260508202906 61 56 0.0 0.0 0.00 0.00 0.00 54 1023.8
20260508202403 60 59 0.0 0.0 0.00 0.00 0.00 56 1023.9
20260508201900 62 61 0.0 0.0 0.00 0.00 0.00 56 1023.8
20260508201357 62 62 0.0 1.0 0.00 0.00 0.00 55 1023.7
20260508200854 61 51 0.0 0.0 0.00 0.00 0.00 58 1023.9
20260508200350 60 67 0.0 0.0 0.00 0.00 0.00 56 1024.1
20260508195846 60 63 0.0 0.0 0.00 0.00 0.00 57 1024.0
20260508195343 60 57 0.0 1.0 0.00 0.00 0.00 59 1024.1
20260508194839 59 18 0.0 0.0 0.00 0.00 0.00 59 1024.1
20260508194337 58 42 0.0 0.0 0.00 0.00 0.00 60 1024.0
20260508193833 59 31 0.0 0.0 0.00 0.00 0.00 60 1024.1
20260508193330 58 64 1.0 2.0 0.00 0.00 0.00 62 1024.1
20260508192827 59 53 0.0 0.0 0.00 0.00 0.00 61 1024.1
20260508192324 58 68 0.0 0.0 0.00 0.00 0.00 62 1024.1
20260508191821 57 29 1.0 1.0 0.00 0.00 0.00 61 1024.2
20260508191318 56 34 0.0 0.0 0.00 0.00 0.00 64 1024.1
20260508190815 59 71 0.0 1.0 0.00 0.00 0.00 61 1024.2
20260508190311 58 51 0.0 0.0 0.00 0.00 0.00 64 1024.0